Miscellaneous Local Product
Issued by NWS Hastings, NE

Home | Current Version | Previous Version | Graphics & Text | Print | Product List | Glossary On
Versions: 1 2 3 4 5 6 7 8 9 10 11 12 13 14 15 16 17 18 19 20 21 22 23 24 25 26 27 28 29 30 31 32 33 34 35 36 37 38 39 40 41 42 43 44 45 46 47 48 49 50
000
AXUS43 KGID 261202
MISGRI

GID CWA HOURLY WEATHER ROUNDUP
NATIONAL WEATHER SERVICE HASTINGS NE
700 AM CDT TUE MAY 26 2015

NOTE: "FAIR" INDICATES FEW OR NO CLOUDS BELOW 12,000 FEET WITH NO
SIGNIFICANT WEATHER AND/OR OBSTRUCTIONS TO VISIBILITY.

...SOUTH CENTRAL NEBRASKA...

CITY           SKY/WX    TMP DP  RH WIND       PRES   REMARKS
GRAND ISLAND   MOCLDY    57  55  93 NW12      29.81R
HASTINGS       CLOUDY    58  56  93 NW13      29.80R
KEARNEY        CLOUDY    57  55  94 NW13      29.84R
ORD            CLOUDY    55  51  86 NW12      29.85R
YORK           MOCLDY    54  54 100 N5        29.78R
AURORA         MOCLDY    57  56  98 N9        29.77R
LEXINGTON      MOCLDY    56  55  94 N9        29.88R
HOLDREGE       CLOUDY    56  54  93 NW9       29.85R
HEBRON         MOCLDY    57  55  90 SW6       29.78R

...NEBRASKA PANHANDLE...

CITY           SKY/WX    TMP DP  RH WIND       PRES   REMARKS
CHADRON        CLOUDY    54  53  97 CALM      29.98R
ALLIANCE       CLOUDY    52  51  97 NW7       29.97R
SCOTTSBLUFF    FOG       46  45  96 W5        30.00R VSB 1/4
SIDNEY         FOG       47  47 100 NW8       30.00R VSB 3/4

...WESTERN AND NORTH CENTRAL NEBRASKA...

CITY           SKY/WX    TMP DP  RH WIND       PRES   REMARKS
VALENTINE      MOCLDY    52  49  89 N7        29.94R
AINSWORTH      PTCLDY    51  50  97 N9        29.92R
ONEILL         CLOUDY    55  53  94 N13       29.85S
BROKEN BOW     CLOUDY    54  51  90 N7        29.89R
IMPERIAL       PTCLDY    50  48  93 NW9       29.94R
NORTH PLATTE   PTCLDY    54  49  83 NW5       29.92R
MCCOOK         MOCLDY    53  50  89 NW8       29.90R

...EASTERN NEBRASKA...

CITY           SKY/WX    TMP DP  RH WIND       PRES   REMARKS
NORFOLK        CLOUDY    59  58  96 W6        29.80R
SO SIOUX CITY  LGT RAIN  62  59  90 CALM      29.78R FOG
TEKAMAH        CLOUDY    61  59  93 SE7       29.77R
COLUMBUS       CLOUDY   N/A N/A N/A MISG        N/A
ALBION         RAIN      57  55  94 N9        29.80S
OMAHA EPPLEY   CLOUDY    61  59  93 S6        29.78R
OFFUTT AFB     CLOUDY    60  59  98 E6        29.77R
MILLARD        CLOUDY    61  58  90 CALM      29.76R
LINCOLN        CLOUDY    61  57  87 W5        29.77R
NEBRASKA CITY  DRIZZLE   59  59 100 S5        29.77R
BEATRICE       CLOUDY    59  57  93 SW7       29.76S
FALLS CITY     LGT RAIN  60  58  92 S5        29.77S

...NORTHERN KANSAS...

CITY           SKY/WX    TMP DP  RH WIND       PRES   REMARKS
GOODLAND       CLEAR     46  44  93 W8        29.96R
HILL CITY      PTCLDY    53  50  89 W7        29.89R
NORTON         SUNNY     54  48  82 W9        29.88R
PHILLIPSBURG   CLEAR     57  55  94 W12       29.86R
SMITH CENTER   MOCLDY    54  54 100 W7        29.83R
HAYS           CLEAR     54  46  76 W10       29.89R
RUSSELL        CLEAR     55  53  93 SW10      29.86R
CONCORDIA      CLOUDY    58  55  90 SW9       29.80R
SALINA         PTCLDY    59  55  87 SW10      29.84R
TOPEKA         CLOUDY    61  60  97 S8        29.83R



USA.gov is the U.S. government's official web portal to all federal, state and local government web resources and services.